Vancouver Int'l Airport, British Columbia

Past 24 Hour Conditions

This table is a summary of hourly weather conditions for the past 24 hours. This summary includes the following parameters: temperature, humidity, dew point, wind speed and direction, air pressure, visibility and/or wind chill and humidex.
Date / Time
(PDT)
Conditions Temp (°C) Humidity (%) Dew Point (°C) Wind (km/h) Pressure (kPa) Visibility (km)
02 September 2014
11:00 Light Rain 15   85 13 WSW 13 101.1 19
10:00 Light Rain 16 87 14 WSW 14 101.2 24
9:00 Light Rain 16 91 14 WNW 13 101.2 24
8:00 Light Rain 16 87 14 W 14 101.3 24
7:00 Mostly Cloudy 16 89 14 W 15 101.3 24
6:00 Mostly Cloudy 16 90 14 W 18 101.3 24
5:00 Mostly Cloudy 16 91 15 WNW 20 101.3 24
4:00 Mostly Cloudy 16 94 15 WNW 19 101.4 24
3:00 Mostly Cloudy 16 93 15 WNW 14 101.4 24
2:00 Mostly Cloudy 15   87 13 W 5 101.5 24
1:00 Mostly Cloudy 17 79 13 N 3 101.5 24
00:00 Mostly Cloudy 17 80 13 SE 8 101.5 24
01 September 2014
23:00 Mostly Cloudy 18 72 13 SE 8 101.5 24
22:00 Mostly Cloudy 18 68 12 ENE 5 101.6 24
21:00 Mostly Cloudy 18 67 12 E 9 101.6 24
20:00 Mostly Cloudy 19 64 12 SE 9 101.6 32
19:00 Mostly Cloudy 19 60 11 SE 9 101.6 32
18:00 Mostly Cloudy 20 59 12 SSE 9 101.7 32
17:00 Mostly Cloudy 19 69 14 SSW 9 101.7 32
16:00 Mostly Cloudy 19 67 13 SSW 14 101.7 32
15:00 Mostly Cloudy 20 61 13 S 11 101.7 32
14:00 Mostly Cloudy 21   57 12 E 16 101.8 32
13:00 Mostly Cloudy 20 58 12 SSE 19 101.8 32
12:00 Mostly Cloudy 20 59 12 SSE 17 101.8 32
11:00 Mostly Cloudy 19 69 13 E 22 101.8 32
N/A
Not available
 ↑ 
Highest temperature
 ↓ 
Lowest temperature

If you require additional historical weather information, please visit Climate Data Online.